Regional Weather Roundup
Issued by NWS Sioux Falls, SD

Home | Current Version | Previous Version | Text Only | Print | Product List | Glossary On
Versions: 1 2 3 4 5 6 7 8 9 10 11 12 13 14 15 16 17 18 19 20 21 22 23 24 25 26 27 28 29 30 31 32 33 34 35 36 37 38 39 40 41 42 43 44 45 46 47 48 49 50
000
ASUS43 KFSD 221802
RWRFSD

WEATHER ROUNDUP FOR SE SOUTH DAKOTA/SW MINNESOTA/NW IOWA
NATIONAL WEATHER SERVICE SIOUX FALLS SD
100 PM CDT FRI SEP 22 2017

NOTE: "FAIR" INDICATES FEW OR NO CLOUDS BELOW 12,000 FEET WITH NO
SIGNIFICANT WEATHER AND OR OBSTRUCTIONS TO VISIBILITY.


SDZ038>040-050-052>070-221900-
SOUTHEAST SOUTH DAKOTA

CITY           SKY/WX    TMP DP  RH WIND       PRES   REMARKS
BROOKINGS      MOSUNNY   85  70  60 S23G30    29.72F
CHAMBERLAIN    SUNNY     76  54  47 SW14G21   29.71S
6HR MIN TEMP:  69; 6HR MAX TEMP:  82;

HURON          MOSUNNY   88  67  49 S18G26    29.64S
6HR MIN TEMP:  73; 6HR MAX TEMP:  89;

MADISON        FAIR      84  72  65 S23G31    29.72S
MITCHELL       SUNNY     92  66  42 SW18G29   29.65F
6HR MIN TEMP:  76; 6HR MAX TEMP:  92;

SIOUX FALLS    MOSUNNY   88  73  61 S18G28    29.72S HX  95
6HR MIN TEMP:  76; 6HR MAX TEMP:  88;

WINNER         FAIR      73  53  49 W18       29.73R
YANKTON        SUNNY     91  68  46 S23G38    29.69F HX  95
$$

MNZ071-072-080-081-089-090-097-098-221900-
SOUTHWEST MINNESOTA

CITY           SKY/WX    TMP DP  RH WIND       PRES   REMARKS
FAIRMONT       SUNNY     88  71  57 S24       29.81F
JACKSON        SUNNY     86  68  54 S18G25    29.82F
LUVERNE        SUNNY     86  66  51 S20G25    29.75F
MARSHALL       MOSUNNY   88  71  57 S18       29.71F
6HR MIN TEMP:  76; 6HR MAX TEMP:  88;

MONTEVIDEO     SUNNY     90  72  55 S9G17     29.72F HX  96
PIPESTONE      SUNNY     86  70  58 S18       29.75F
REDWOOD FALLS  LGT RAIN  90  69  50 S20G25    29.74F
TRACY          SUNNY     88  72  59 S16G24    29.74F HX  95
WORTHINGTON    SUNNY     87  70  56 S20G26    29.79F
$$

IAZ001>003-012>014-020>022-031-032-NEZ013-014-SDZ071-221900-
NORTHWEST IOWA

CITY           SKY/WX    TMP DP  RH WIND       PRES   REMARKS
CHEROKEE       SUNNY     87  72  60 S18G26    29.81F
DENISON        SUNNY     90  72  55 S16G25    29.85F HX  96
ESTHERVILLE    SUNNY     87  71  58 S20G31    29.82F
LE MARS        SUNNY     88  70  55 S25       29.76F
ORANGE CITY    SUNNY     88  72  58 S23       29.78S
SHELDON        SUNNY     88  70  55 S16G25    29.77F
SIOUX CITY     SUNNY     88  71  57 S22G33    29.77F
6HR MIN TEMP:  74; 6HR MAX TEMP:  88;

SPENCER        SUNNY     89  69  51 S20G29    29.81F
6HR MIN TEMP:  74; 6HR MAX TEMP:  89;

STORM LAKE     SUNNY     90  70  51 S22       29.83F HX  95
$$

ABBREVIATIONS USED IN REMARKS
   TC - TEMPERATURE IN CELSIUS
  WCI - WIND CHILL INDEX
   HX - HEAT INDEX
  VSB - VISIBILITY





USA.gov is the U.S. government's official web portal to all federal, state and local government web resources and services.